Newport News, VA

11:00 PM EST on November 21, 2017 (GMT -0500)
Newport News-Williamsburg International

Weather History for KPHF - May, 2014

Change the Weather History Date:

Tuesday, May 13, 2014

  Actual Average Record
Temperature  
Mean Temperature 84 °F -  
Max Temperature 95 °F 78 °F 95 °F (2000)
Min Temperature 72 °F 58 °F 46 °F (1963)
Cooling Degree Days 18    
Growing Degree Days 34 (Base 50)    
Moisture  
Dew Point 67 °F    
Average Humidity 62    
Maximum Humidity 82    
Minimum Humidity 37    
Precipitation  
Precipitation 0.00 in - - ()
Sea Level Pressure  
Sea Level Pressure 30.10 in    
Wind  
Wind Speed 8 mph (SSW)    
Max Wind Speed 15 mph    
Max Gust Speed -    
Visibility 8 miles    
Events      
Averages and records for this station are not official NWS values.
T = Trace of Precipitation, MM = Missing Value Source: NWS Daily Summary

Daily Weather History Graph

Daily Weather History Graph

Search for Another Location

Airport or City:

Trip Planner

Search our weather history database for the weather conditions in past years. The results will help you decide how hot, cold, wet, or windy it might be!

Date:

Astronomy

May. 13, 2014 Rise Set
Actual Time 5:59 AM EDT 8:05 PM EDT
Civil Twilight 5:30 AM EDT 8:34 PM EDT
Nautical Twilight 4:55 AM EDT 9:10 PM EDT
Astronomical Twilight 4:17 AM EDT 9:48 PM EDT
Moon 7:06 PM EDT (5/13) 5:12 AM EDT (5/13)
Length of Visible Light 15h 04m
Length of Day
14h 06m
Waxing Gibbous, 98% of the Moon is Illuminated
May 13
Waxing Gibbous
May 14
Full
May 21
Last Quarter
May 28
New
Jun 5
First Quarter

Hourly Weather History & Observations

Time (EDT) Temp. Heat Index Dew Point Humidity Pressure Visibility Wind Dir Wind Speed Gust Speed Precip Events Conditions
12:54 AM 77.0 °F - 68.0 °F 74% 30.10 in 10.0 mi SW 8.1 mph - N/A   Clear
1:54 AM 77.0 °F - 68.0 °F 74% 30.09 in 10.0 mi SW 11.5 mph - N/A   Clear
2:54 AM 75.9 °F - 68.0 °F 76% 30.07 in 10.0 mi SW 9.2 mph - N/A   Clear
3:54 AM 75.9 °F - 68.0 °F 76% 30.08 in 10.0 mi WSW 9.2 mph - N/A   Clear
4:54 AM 73.9 °F - 66.9 °F 79% 30.09 in 9.0 mi WSW 8.1 mph - N/A   Clear
5:54 AM 73.9 °F - 68.0 °F 82% 30.09 in 9.0 mi WSW 4.6 mph - N/A   Clear
6:54 AM 75.0 °F - 68.0 °F 79% 30.11 in 7.0 mi WSW 4.6 mph - N/A   Clear
7:54 AM 78.1 °F - 69.1 °F 74% 30.11 in 9.0 mi WSW 8.1 mph - N/A   Clear
8:54 AM 82.4 °F 86.3 °F 69.8 °F 66% 30.11 in 10.0 mi West 8.1 mph - N/A   Clear
9:54 AM 86.0 °F 90.1 °F 69.1 °F 57% 30.12 in 10.0 mi WSW 5.8 mph - N/A   Clear
10:54 AM 88.0 °F 92.1 °F 69.1 °F 53% 30.12 in 10.0 mi SW 9.2 mph - N/A   Clear
11:54 AM 91.4 °F 96.8 °F 69.8 °F 49% 30.11 in 10.0 mi Variable 6.9 mph - N/A   Clear
12:54 PM 91.9 °F 95.9 °F 68.0 °F 45% 30.11 in 10.0 mi SSW 10.4 mph - N/A   Clear
1:54 PM 93.0 °F 95.9 °F 66.0 °F 41% 30.10 in 10.0 mi SSW 6.9 mph - N/A   Clear
2:54 PM 93.9 °F 97.0 °F 66.0 °F 40% 30.09 in 10.0 mi North - - N/A   Clear
3:54 PM 95.0 °F 97.4 °F 64.9 °F 37% 30.07 in 10.0 mi SSW 4.6 mph - N/A   Clear
4:54 PM 93.9 °F 95.6 °F 64.0 °F 37% 30.07 in 10.0 mi SSW 8.1 mph - N/A   Clear
5:54 PM 93.9 °F 96.1 °F 64.9 °F 38% 30.06 in 10.0 mi East 5.8 mph - N/A   Clear
6:54 PM 89.1 °F 92.1 °F 66.9 °F 48% 30.07 in 10.0 mi East 5.8 mph - N/A   Clear
7:54 PM 75.9 °F - 68.0 °F 76% 30.10 in 6.0 mi NE 9.2 mph - N/A   Haze
8:34 PM 72.0 °F - 66.0 °F 81% 30.11 in 5.0 mi ENE 12.7 mph - N/A   Haze
8:45 PM 72.0 °F - 66.0 °F 81% 30.11 in 5.0 mi ENE 12.7 mph - N/A   Haze
8:54 PM - - - N/A% 30.12 in 5.0 mi ENE 15.0 mph - N/A   Haze
9:31 PM - - - N/A% 30.13 in 4.0 mi ENE 8.1 mph - N/A   Haze
9:54 PM - - - N/A% 30.14 in 4.0 mi ENE 11.5 mph - N/A   Haze
10:54 PM - - - N/A% 30.15 in 4.0 mi ENE 8.1 mph - N/A   Haze
11:54 PM - - - N/A% 30.16 in 3.0 mi ENE 10.4 mph - N/A   Overcast